Sanford, FL

8:21 PM EST on December 16, 2017 (GMT -0500)
Orlando Sanford

Weather History for KSFB - October, 2013

Change the Weather History Date:

Monday, October 7, 2013

  Actual Average Record
Temperature  
Mean Temperature 76 °F 78 °F  
Max Temperature 84 °F 87 °F 94 °F (1986)
Min Temperature 71 °F 69 °F 54 °F (2010)
Degree Days  
Heating Degree Days 0 0  
Month to date heating degree days 0  
Since 1 July heating degree days 0  
Cooling Degree Days 12 13  
Month to date cooling degree days 94  
Year to date cooling degree days 2988  
Growing Degree Days 26 (Base 50)    
Moisture  
Dew Point 73 °F    
Average Humidity 91    
Maximum Humidity 100    
Minimum Humidity 74    
Precipitation  
Precipitation 0.38 in 0.16 in 2.80 in (1996)
Month to date precipitation 1.16  
Year to date precipitation 43.94  
Snow  
Snow 0.00 in - - ()
Month to date snowfall  
Since 1 July snowfall  
Snow Depth -    
Sea Level Pressure  
Sea Level Pressure 29.82 in    
Wind  
Wind Speed 6 mph (South)    
Max Wind Speed 21 mph    
Max Gust Speed 26 mph    
Visibility 9 miles    
Events Rain    
T = Trace of Precipitation, MM = Missing Value Source: NWS Daily Summary

Daily Weather History Graph

Daily Weather History Graph

Search for Another Location

Airport or City:

Trip Planner

Search our weather history database for the weather conditions in past years. The results will help you decide how hot, cold, wet, or windy it might be!

Date:

Astronomy

Oct. 07, 2013 Rise Set
Actual Time 7:21 AM EDT 7:03 PM EDT
Civil Twilight 6:57 AM EDT 7:27 PM EDT
Nautical Twilight 6:30 AM EDT 7:54 PM EDT
Astronomical Twilight 6:02 AM EDT 8:21 PM EDT
Moon 9:55 AM EDT (10/7) 9:03 PM EDT (10/7)
Length of Visible Light 12h 29m
Length of Day
11h 42m
Waxing Crescent, 8% of the Moon is Illuminated
Oct 7
Waxing Crescent
Oct 11
First Quarter
Oct 18
Full
Oct 26
Last Quarter
Nov 3
New

Hourly Weather History & Observations

Time (EDT) Temp. Heat Index Dew Point Humidity Pressure Visibility Wind Dir Wind Speed Gust Speed Precip Events Conditions
12:53 AM 75.0 °F - 73.9 °F 96% 29.89 in 10.0 mi Calm Calm - N/A   Clear
1:53 AM 75.0 °F - 73.0 °F 94% 29.88 in 10.0 mi SSW 5.8 mph - N/A   Clear
2:53 AM 75.0 °F - 73.0 °F 94% 29.86 in 10.0 mi SSE 4.6 mph - N/A   Clear
3:53 AM 75.0 °F - 73.0 °F 94% 29.84 in 10.0 mi SSE 8.1 mph - N/A   Clear
4:53 AM 75.0 °F - 73.0 °F 94% 29.84 in 10.0 mi South 5.8 mph - N/A   Clear
5:53 AM 73.9 °F - 73.0 °F 97% 29.84 in 10.0 mi South 6.9 mph - N/A   Clear
6:53 AM 73.9 °F - 73.0 °F 97% 29.84 in 10.0 mi South 5.8 mph - N/A   Clear
7:53 AM 73.9 °F - 73.9 °F 100% 29.85 in 10.0 mi South 5.8 mph - N/A   Clear
8:53 AM 75.9 °F - 75.0 °F 97% 29.86 in 10.0 mi SSE 8.1 mph - N/A   Clear
9:53 AM 79.0 °F - 75.0 °F 88% 29.87 in 10.0 mi SSW 8.1 mph - N/A   Partly Cloudy
10:53 AM 82.0 °F 87.9 °F 73.9 °F 76% 29.87 in 10.0 mi Variable 6.9 mph - N/A   Partly Cloudy
11:53 AM 81.0 °F 85.2 °F 72.0 °F 74% 29.86 in 10.0 mi South 4.6 mph - 0.00 in   Overcast
12:53 PM 80.1 °F 83.6 °F 71.1 °F 74% 29.84 in 10.0 mi West 16.1 mph 20.7 mph 0.01 in   Overcast
1:22 PM 73.4 °F - 71.6 °F 94% 29.86 in 2.5 mi West 12.7 mph - 0.02 in Rain Heavy Rain
1:32 PM 73.4 °F - 71.6 °F 94% 29.85 in 1.0 mi West 12.7 mph - 0.08 in Rain Heavy Rain
1:43 PM 71.6 °F - 71.6 °F 100% 29.85 in 3.0 mi West 12.7 mph 19.6 mph 0.10 in Rain Light Rain
1:53 PM 73.0 °F - 71.1 °F 93% 29.84 in 2.5 mi SW 10.4 mph - 0.13 in Rain Rain
2:31 PM 73.4 °F - 71.6 °F 94% 29.81 in 9.0 mi SE 6.9 mph - 0.08 in Rain Light Rain
2:53 PM 77.0 °F - 73.9 °F 90% 29.80 in 10.0 mi SE 4.6 mph - 0.08 in   Partly Cloudy
3:53 PM 80.1 °F 85.1 °F 75.0 °F 85% 29.78 in 10.0 mi SE 5.8 mph - N/A   Partly Cloudy
4:12 PM 80.6 °F 86.2 °F 75.2 °F 84% 29.78 in 10.0 mi SE 4.6 mph - N/A   Mostly Cloudy
4:44 PM 80.6 °F 86.2 °F 75.2 °F 84% 29.77 in 10.0 mi ESE 4.6 mph - N/A   Mostly Cloudy
4:53 PM 82.0 °F 88.6 °F 75.0 °F 79% 29.77 in 10.0 mi SE 6.9 mph - N/A   Mostly Cloudy
5:53 PM 78.1 °F - 75.0 °F 90% 29.76 in 10.0 mi East 5.8 mph - 0.00 in   Mostly Cloudy
5:59 PM 77.0 °F - 73.4 °F 89% 29.78 in 1.8 mi SSW 20.7 mph 26.5 mph 0.06 in   Mostly Cloudy
6:28 PM 73.4 °F - 71.6 °F 94% 29.79 in 8.0 mi South 10.4 mph - 0.14 in Rain Light Rain
6:53 PM 73.0 °F - 71.1 °F 93% 29.78 in 10.0 mi South 6.9 mph - 0.15 in   Scattered Clouds
7:53 PM 73.0 °F - 72.0 °F 96% 29.79 in 10.0 mi South 8.1 mph - 0.00 in   Scattered Clouds
8:53 PM 73.9 °F - 72.0 °F 93% 29.80 in 10.0 mi South 4.6 mph - 0.01 in   Clear
9:53 PM 73.9 °F - 72.0 °F 93% 29.81 in 10.0 mi South 5.8 mph - N/A   Clear
10:53 PM 73.9 °F - 73.0 °F 97% 29.82 in 10.0 mi SSE 5.8 mph - N/A   Overcast
11:06 PM 73.4 °F - 73.4 °F 100% 29.82 in 10.0 mi South 6.9 mph - N/A   Overcast
11:53 PM 73.9 °F - 73.0 °F 97% 29.82 in 10.0 mi SSE 5.8 mph - N/A   Mostly Cloudy